SWA1472 KGEG-KSEA

Flight info

Callsign SWA1472
Flight time N/A
Altitude 30000
Route DCT TEMPL GLASR3
Aircraft B738/M-SDE2E3FGHIRWXY/LB1

Departure

Time 2026-04-28 23:57
Airport Spokane International Airport (KGEG)

Arrival

Time N/A
Airport Seattle–Tacoma International Airport (KSEA)
Time Latitude Longitude Altitude Speed Heading
2026-04-28 23:21 47.62516 -117.53455 2383 ft 0 kts 352°
2026-04-28 23:38 47.62516 -117.53454 2374 ft 0 kts 352°
2026-04-28 23:44 47.62500 -117.53452 2376 ft 2 kts 340°
2026-04-28 23:45 47.62478 -117.53440 2378 ft 4 kts 339°
2026-04-28 23:45 47.62453 -117.53427 2377 ft 4 kts 347°
2026-04-28 23:45 47.62428 -117.53426 2375 ft 4 kts 30°
2026-04-28 23:45 47.62420 -117.53436 2374 ft 1 kts 45°
2026-04-28 23:46 47.62419 -117.53436 2374 ft 2 kts 45°
2026-04-28 23:51 47.62420 -117.53436 2374 ft 0 kts 45°
2026-04-28 23:51 47.62425 -117.53427 2377 ft 2 kts 45°
2026-04-28 23:51 47.62436 -117.53412 2377 ft 2 kts 45°
2026-04-28 23:51 47.62449 -117.53391 2374 ft 5 kts 45°
2026-04-28 23:52 47.62474 -117.53354 2374 ft 5 kts 45°
2026-04-28 23:52 47.62499 -117.53317 2376 ft 5 kts 45°
2026-04-28 23:52 47.62511 -117.53266 2374 ft 6 kts 98°
2026-04-28 23:52 47.62500 -117.53181 2374 ft 12 kts 73°
2026-04-28 23:53 47.62574 -117.53061 2374 ft 18 kts 45°
2026-04-28 23:53 47.62659 -117.52933 2374 ft 17 kts 45°
2026-04-28 23:53 47.62741 -117.52807 2374 ft 17 kts 45°
2026-04-28 23:53 47.62821 -117.52688 2374 ft 16 kts 45°
2026-04-28 23:54 47.62897 -117.52573 2377 ft 15 kts 45°
2026-04-28 23:54 47.62970 -117.52463 2377 ft 15 kts 45°
2026-04-28 23:54 47.63040 -117.52357 2374 ft 14 kts 45°
2026-04-28 23:54 47.63108 -117.52256 2374 ft 13 kts 45°
2026-04-28 23:55 47.63172 -117.52159 2374 ft 13 kts 45°
2026-04-28 23:55 47.63230 -117.52061 2377 ft 13 kts 68°
2026-04-28 23:55 47.63192 -117.51953 2374 ft 12 kts 135°
2026-04-28 23:55 47.63132 -117.51865 2374 ft 12 kts 143°
2026-04-28 23:56 47.63079 -117.51892 2378 ft 0 kts 226°
2026-04-28 23:56 47.63038 -117.51955 2378 ft 34 kts 225°
2026-04-28 23:57 47.62693 -117.52475 2377 ft 105 kts 225°
2026-04-28 23:57 47.62031 -117.53463 2383 ft 163 kts 224°
2026-04-28 23:57 47.61139 -117.54766 2752 ft 190 kts 224°
2026-04-28 23:57 47.60118 -117.56225 3204 ft 217 kts 224°
2026-04-28 23:58 47.58991 -117.57793 3893 ft 227 kts 223°
2026-04-28 23:58 47.57838 -117.59403 4635 ft 235 kts 224°
2026-04-28 23:58 47.56660 -117.61119 5376 ft 239 kts 225°
2026-04-28 23:58 47.55505 -117.62898 6090 ft 239 kts 229°
2026-04-28 23:59 47.54446 -117.64831 6587 ft 247 kts 233°
2026-04-28 23:59 47.53497 -117.67012 6865 ft 259 kts 242°
2026-04-28 23:59 47.52720 -117.69465 7272 ft 265 kts 250°
2026-04-28 23:59 47.52345 -117.72133 7742 ft 268 kts 266°
2026-04-29 00:00 47.52367 -117.74967 7912 ft 285 kts 272°
2026-04-29 00:00 47.52488 -117.77991 8014 ft 306 kts 273°
2026-04-29 00:00 47.52641 -117.81274 8142 ft 328 kts 274°
2026-04-29 00:00 47.52807 -117.84703 8657 ft 337 kts 272°
2026-04-29 00:01 47.52959 -117.88063 9818 ft 326 kts 274°
2026-04-29 00:01 47.53161 -117.91482 10133 ft 342 kts 275°
2026-04-29 00:01 47.53400 -117.95054 10506 ft 353 kts 276°
2026-04-29 00:01 47.53668 -117.98707 10971 ft 361 kts 277°
2026-04-29 00:02 47.53966 -118.02440 11447 ft 369 kts 277°
2026-04-29 00:02 47.54298 -118.06227 12026 ft 373 kts 278°
2026-04-29 00:02 47.54663 -118.10036 12704 ft 374 kts 279°
2026-04-29 00:02 47.55072 -118.13844 13381 ft 376 kts 280°
2026-04-29 00:03 47.55545 -118.17668 13949 ft 381 kts 282°
2026-04-29 00:03 47.56088 -118.21536 14370 ft 387 kts 283°
2026-04-29 00:03 47.56750 -118.25430 14804 ft 392 kts 287°
2026-04-29 00:03 47.57575 -118.29290 15338 ft 394 kts 290°
2026-04-29 00:04 47.58521 -118.33083 15955 ft 390 kts 292°
2026-04-29 00:04 47.59548 -118.36779 16370 ft 384 kts 294°
2026-04-29 00:04 47.60601 -118.40394 16257 ft 380 kts 292°
2026-04-29 00:04 47.61420 -118.44073 16576 ft 371 kts 286°
2026-04-29 00:05 47.61934 -118.47819 16998 ft 372 kts 278°
2026-04-29 00:05 47.62217 -118.51634 17425 ft 375 kts 274°
2026-04-29 00:05 47.62292 -118.54209 17572 ft 379 kts 275°
2026-04-29 00:05 47.62531 -118.58075 17817 ft 374 kts 278°
2026-04-29 00:06 47.62875 -118.61858 18200 ft 368 kts 279°
2026-04-29 00:06 47.63273 -118.65606 18519 ft 368 kts 280°
2026-04-29 00:06 47.63813 -118.70540 19040 ft 364 kts 280°
2026-04-29 00:06 47.64085 -118.73020 19520 ft 357 kts 280°
2026-04-29 00:07 47.64452 -118.76597 20282 ft 349 kts 279°
2026-04-29 00:07 47.64817 -118.80212 20297 ft 361 kts 280°
2026-04-29 00:07 47.65225 -118.83822 20967 ft 354 kts 281°
2026-04-29 00:07 47.65672 -118.87468 20979 ft 365 kts 282°
2026-04-29 00:08 47.66154 -118.91178 21088 ft 368 kts 282°
2026-04-29 00:08 47.66619 -118.94889 21268 ft 359 kts 281°
2026-04-29 00:08 47.66996 -118.98435 22187 ft 339 kts 279°
2026-04-29 00:08 47.67293 -119.01856 22686 ft 340 kts 278°
2026-04-29 00:09 47.67582 -119.05416 22590 ft 354 kts 281°
2026-04-29 00:09 47.68072 -119.08940 23250 ft 349 kts 284°
2026-04-29 00:09 47.68659 -119.12494 23273 ft 357 kts 285°
2026-04-29 00:09 47.69239 -119.16003 24133 ft 340 kts 283°
2026-04-29 00:10 47.69622 -119.19319 25240 ft 313 kts 281°
2026-04-29 00:10 47.69924 -119.22491 25648 ft 314 kts 281°
2026-04-29 00:10 47.70277 -119.25706 25845 ft 316 kts 282°
2026-04-29 00:10 47.70691 -119.28950 25869 ft 326 kts 284°
2026-04-29 00:11 47.71174 -119.32296 25884 ft 334 kts 285°
2026-04-29 00:11 47.71727 -119.35683 25988 ft 341 kts 286°
2026-04-29 00:11 47.72792 -119.42777 26061 ft 358 kts 283°
2026-04-29 00:12 47.73260 -119.46471 25870 ft 373 kts 283°
2026-04-29 00:12 47.73801 -119.50261 25846 ft 379 kts 285°
2026-04-29 00:12 47.74388 -119.53973 26254 ft 357 kts 285°
2026-04-29 00:12 47.74966 -119.57596 26634 ft 361 kts 285°